Location: Pedimozza
(42.0500°N, 9.3500°E)
Time: 18:03:59
(UTC+00:00)

H-2A R/B - Pass Details

Date: 19 August 2019
Orbit: 734 x 836 km, 98.3° (Epoch: 13 October)

Event Time Altitude Azimuth Distance (km) Brightness Sun altitude
Exits shadow 19:33:13 - 170° (S) 2,615 4.4 -13.6°
Reaches altitude 10° 19:33:59 10° 171° (S) 2,308 4.1 -13.7°
Maximum altitude 19:39:04 77° 257° (WSW) 782 2.1 -14.5°
Drops below altitude 10° 19:44:04 10° 344° (NNW) 2,270 5.2 -15.3°
Sets 19:46:21 0° 346° (NNW) 3,189 6.0 -15.6°
